Location: Arpaise
(41.0333°N, 14.7333°E)
Time: 06:35:04
(UTC+00:00)

ATLAS 2AS CENTAUR R/B - Pass Details

Date: 05 July 2020
Orbit: 930 x 1282 km, 63.7° (Epoch: 19 July)

Event Time Altitude Azimuth Distance (km) Brightness Sun altitude
Rises 20:43:27 0° 327° (NNW) 4,191 7.5 -18.2°
Reaches altitude 10° 20:46:44 10° 338° (NNW) 3,181 6.4 -18.6°
Maximum altitude 20:53:23 31° 38° (NE) 1,905 4.2 -19.3°
Enters shadow 20:58:54 13° 96° (E) 2,765 4.5 -19.8°
